www.srh.weather.gov   
NOAA logo - Click to go to the NOAA homepage   NWS logo
Hourly Weather Roundup
Enter Your "City, ST" or zip code   
Current Version              Previous Version:    01  02  03  04  05  06  07  08  09  10  11  12  13  14  15  16  17  18  19  20  21  22  23  24  25  26  27  28  29  30  
   31  32  33  34  35  36  37  38  39  40  41  42  43  44  45  46  47  48  49  50  51  52  53  54  55  56  57  58  59  60  
[Printable]
329
NZUS43 KILX 232210
HWRILX

AREA WEATHER ROUNDUP
NATIONAL WEATHER SERVICE, LINCOLN IL
500 PM CDT WED APR 23 2014


CITY           SKY/WX    TMP DP  RH WIND       PRES   REMARKS
BLOOMINGTON    MOSUNNY   59  24  26 E7        30.08S
CHAMPAIGN      SUNNY     62  25  24 E7        30.06S
DANVILLE       SUNNY     60  27  28 E5        30.05S
DECATUR        MOSUNNY   61  26  26 E7        30.05S
FLORA          SUNNY     62  30  30 E6        30.04F
GALESBURG      LGT RAIN  52  40  64 E6        30.06F
JACKSONVILLE   LGT RAIN  60  32  34 E12       30.04F
LACON          CLOUDY    58  29  32 E6        30.07F
LAWRENCEVILLE  SUNNY     64  30  27 VRB7      30.05F
LITCHFIELD     PTSUNNY   61  34  36 E8        30.03S
$$


CITY           SKY/WX    TMP DP  RH WIND       PRES   REMARKS
LINCOLN        CLOUDY    63  27  25 E7        30.05S
MACOMB         LGT RAIN  54  39  58 E12       30.05F
MATTOON        MOSUNNY   60  26  27 E5        30.04F
MT CARMEL AP   SUNNY     64  30  27 NE7       30.04F
OLNEY-NOBLE AP SUNNY     61  32  33 CALM      30.04F
PARIS          SUNNY     62  32  31 NE5       30.06F
PEORIA         LGT RAIN  61  26  26 E6        30.07S
PONTIAC        MOSUNNY   59  27  29 NE6       30.09R
RANTOUL        SUNNY     64  23  20 CALM      30.08R
ROBINSON       SUNNY     64  35  34 N5        30.06S
SPRINGFIELD    PTSUNNY   62  25  24 E7        30.05S
TAYLORVILLE    PTSUNNY   61  28  29 E6        30.05R
$$

...REGIONAL REPORTS...


CITY           SKY/WX    TMP DP  RH WIND       PRES   REMARKS
CHICAGO O`HARE CLOUDY    47  21  35 NE8       30.12S
KANKAKEE       MOSUNNY   56  32  39 NE8       30.10R
MOLINE         LGT RAIN  54  34  46 E12       30.05F
MOUNT VERNON   SUNNY    N/A N/A N/A NE9       30.03F
PITTSFIELD     DRIZZLE   59  38  45 E8        30.01F
QUINCY         CLOUDY    60  33  36 E15       29.99F
ROCKFORD       CLOUDY    55  25  31 E8        30.12S
$$


CITY           SKY/WX    TMP DP  RH WIND       PRES   REMARKS
BURLINGTON     CLOUDY    53  38  56 E10       30.01F
CEDAR RAPIDS   LGT RAIN  45  40  82 E15       29.97F
DES MOINES     LGT RAIN  48  40  73 SE20G25   29.87F
KIRKSVILLE     CLOUDY    60  37  42 E18       29.96F
OTTUMWA        CLOUDY    49  40  71 E21G28    29.91F
ST LOUIS       CLOUDY    64  34  32 E12       30.01F
$$


CITY           SKY/WX    TMP DP  RH WIND       PRES   REMARKS
TERRE HAUTE    SUNNY     61  25  25 SE3       30.05F
EVANSVILLE     SUNNY     66  29  24 N7        30.03F
INDIANAPOLIS   MOSUNNY   58  30  34 VRB5      30.05F
LAFAYETTE      SUNNY     58  27  30 VRB5      30.07S
MADISON        CLOUDY    54  25  32 SE12      30.09F
MILWAUKEE      CLOUDY    42  23  46 NE7       30.16S
$$





National Weather Service
Disclaimer
Last Modified: August 31, 2005
Privacy Policy